Tillbaka till svenska Fidonet
English   Information   Debug  
FILM   0/18
FNEWS_PUBLISH   5034
FN_SYSOP   42247
FN_SYSOP_OLD1   71952
FTP_FIDO   0/2
FTSC_PUBLIC   0/13979
FUNNY   0/4886
GENEALOGY.EUR   0/71
GET_INFO   105
GOLDED   0/408
HAM   0/16786
HOLYSMOKE   0/6791
HOT_SITES   0/1
HTMLEDIT   0/71
HUB203   466
HUB_100   264
HUB_400   39
HUMOR   0/29
IC   0/2851
INTERNET   0/424
INTERUSER   0/3
IP_CONNECT   719
JAMNNTPD   0/233
JAMTLAND   0/47
KATTY_KORNER   0/41
LAN   0/16
LINUX-USER   0/19
LINUXHELP   0/1155
LINUX   0/22427
LINUX_BBS   0/957
mail   18.68
mail_fore_ok   249
MENSA   0/341
MODERATOR   0/102
MONTE   0/992
MOSCOW_OKLAHOMA   0/1245
MUFFIN   0/783
MUSIC   0/321
N203_STAT   938
N203_SYSCHAT   313
NET203   321
NET204   69
NET_DEV   0/10
NORD.ADMIN   0/101
NORD.CHAT   0/2572
NORD.FIDONET   189
NORD.HARDWARE   0/28
NORD.KULTUR   0/114
NORD.PROG   0/32
NORD.SOFTWARE   0/88
NORD.TEKNIK   0/58
NORD   0/453
OCCULT_CHAT   0/93
OS2BBS   0/787
OS2DOSBBS   0/580
OS2HW   0/42
OS2INET   0/37
OS2LAN   0/134
OS2PROG   0/36
OS2REXX   0/113
OS2USER-L   207
OS2   0/4835
OSDEBATE   0/18996
PASCAL   0/490
PERL   0/457
PHP   0/45
POINTS   0/405
POLITICS   0/29554
POL_INC   0/14731
PSION   103
R20_ADMIN   1133
R20_AMATORRADIO   0/2
R20_BEST_OF_FIDONET   16
R20_CHAT   0/897
R20_DEPP   0/3
R20_DEV   400
R20_ECHO2   1933
R20_ECHOPRES   0/35
R20_ESTAT   0/719
R20_FIDONETPROG...
...RAM.MYPOINT
  0/2
R20_FIDONETPROGRAM   0/22
R20_FIDONET   0/248
R20_FILEFIND   0/24
R20_FILEFOUND   0/22
R20_HIFI   0/3
R20_INFO2   3826
R20_INTERNET   0/12940
R20_INTRESSE   0/60
R20_INTR_KOM   0/99
R20_KANDIDAT.CHAT   42
R20_KANDIDAT   28
R20_KOM_DEV   112
R20_KONTROLL   0/13360
R20_KORSET   0/18
R20_LOKALTRAFIK   0/24
R20_MODERATOR   0/1852
R20_NC   76
R20_NET200   245
R20_NETWORK.OTH...
...ERNETS
  0/13
R20_OPERATIVSYS...
...TEM.LINUX
  0/44
R20_PROGRAMVAROR   0/1
R20_REC2NEC   534
R20_SFOSM   0/341
R20_SF   0/108
R20_SPRAK.ENGLISH   0/1
R20_SQUISH   107
R20_TEST   2
R20_WORST_OF_FIDONET   20
RAR   0/9
RA_MULTI   106
RA_UTIL   0/162
REGCON.EUR   0/2072
REGCON   0/13
SCIENCE   0/1206
SF   0/239
SHAREWARE_SUPPORT   0/5146
SHAREWRE   0/14
SIMPSONS   0/169
STATS_OLD1   0/2539.065
STATS_OLD2   0/2530
STATS_OLD3   0/2395.095
STATS_OLD4   0/1692.25
SURVIVOR   0/495
SYSOPS_CORNER   0/3
SYSOP   0/84
TAGLINES   0/112
TEAMOS2   0/4530
TECH   0/2617
TEST.444   0/105
TRAPDOOR   0/19
TREK   0/755
TUB   0/290
UFO   0/40
UNIX   0/1316
USA_EURLINK   0/102
USR_MODEMS   0/1
VATICAN   0/2740
VIETNAM_VETS   0/14
VIRUS   0/378
VIRUS_INFO   0/201
VISUAL_BASIC   0/473
WHITEHOUSE   0/5187
WIN2000   0/101
WIN32   0/30
WIN95   0/4291
WIN95_OLD1   0/70272
WINDOWS   0/1517
WWB_SYSOP   0/419
WWB_TECH   0/810
ZCC-PUBLIC   0/1
ZEC   4

 
4DOS   0/134
ABORTION   0/7
ALASKA_CHAT   0/506
ALLFIX_FILE   0/1313
ALLFIX_FILE_OLD1   0/7997
ALT_DOS   0/152
AMATEUR_RADIO   0/1039
AMIGASALE   0/14
AMIGA   0/331
AMIGA_INT   0/1
AMIGA_PROG   0/20
AMIGA_SYSOP   0/26
ANIME   0/15
ARGUS   0/924
ASCII_ART   0/340
ASIAN_LINK   0/651
ASTRONOMY   0/417
AUDIO   0/92
AUTOMOBILE_RACING   0/105
BABYLON5   0/17862
BAG   135
BATPOWER   0/361
BBBS.ENGLISH   0/382
BBSLAW   0/109
BBS_ADS   0/5290
BBS_INTERNET   0/507
BIBLE   0/3563
BINKD   0/1119
BINKLEY   0/215
BLUEWAVE   0/2173
CABLE_MODEMS   0/25
CBM   0/46
CDRECORD   0/66
CDROM   0/20
CLASSIC_COMPUTER   0/378
COMICS   0/15
CONSPRCY   0/899
COOKING   42382
COOKING_OLD1   0/24719
COOKING_OLD2   0/40862
COOKING_OLD3   0/37489
COOKING_OLD4   0/35496
COOKING_OLD5   9370
C_ECHO   0/189
C_PLUSPLUS   0/31
DIRTY_DOZEN   0/201
DOORGAMES   0/2388
DOS_INTERNET   0/196
duplikat   6102
ECHOLIST   0/18295
EC_SUPPORT   0/318
ELECTRONICS   0/359
ELEKTRONIK.GER   1534
ENET.LINGUISTIC   0/13
ENET.POLITICS   0/4
ENET.SOFT   0/11701
ENET.SYSOP   34388
ENET.TALKS   0/32
ENGLISH_TUTOR   0/2000
EVOLUTION   0/1335
FDECHO   0/217
FDN_ANNOUNCE   0/7068
FIDONEWS   25217
FIDONEWS_OLD1   0/49742
FIDONEWS_OLD2   0/35949
FIDONEWS_OLD3   0/30874
FIDONEWS_OLD4   0/37224
FIDO_SYSOP   12977
FIDO_UTIL   0/180
FILEFIND   0/209
FILEGATE   0/212
Möte HAM, 16786 texter
 lista första sista föregående nästa
Text 737, 791 rader
Skriven 2005-12-23 01:01:20 av Amsat List (1:323/120.0)
Ärende: 
========
SB KEPS @ AMSAT  $ORB05356.O
Orbital Elements  05356.OSCAR

HR AMSAT ORBITAL ELEMENTS FOR OSCAR SATELLITES
FROM WA5QGD FORT WORTH,TX December 22, 2005
Send SUBSCRIBE KEPS/UNSUBSCRIBE KEPS to majordomo@amsat.org only
BID: ORB05356.O
TO ALL RADIO AMATEURS BT

Satellite: AO-07
Catalog number: 07530
Epoch time:      05355.93648775
Element set:    0534
Inclination:      101.5994 deg
RA of node:       038.1119 deg
Eccentricity:    0.0012055
Arg of perigee:   230.2837 deg
Mean anomaly:     129.7174 deg
Mean motion:   12.53571556 rev/day
Decay rate:       -2.8e-07 rev/day^2
Epoch rev:           42317
Checksum:              301

Satellite: AO-10
Catalog number: 14129
Epoch time:      05354.07838573
Element set:     241
Inclination:      027.4832 deg
RA of node:       358.0225 deg
Eccentricity:    0.6032916
Arg of perigee:   246.7572 deg
Mean anomaly:     040.8981 deg
Mean motion:   02.05873994 rev/day
Decay rate:      -5.27e-06 rev/day^2
Epoch rev:           16936
Checksum:              321

Satellite: UO-11
Catalog number: 14781
Epoch time:      05354.55742744
Element set:    0952
Inclination:      098.2064 deg
RA of node:       355.9833 deg
Eccentricity:    0.0010089
Arg of perigee:   116.3504 deg
Mean anomaly:     243.8750 deg
Mean motion:   14.79356151 rev/day
Decay rate:       -5.5e-07 rev/day^2
Epoch rev:           16935
Checksum:              314

Satellite: RS-10/11
Catalog number: 18129
Epoch time:      05356.65437046
Element set:     868
Inclination:      082.9248 deg
RA of node:       098.7496 deg
Eccentricity:    0.0010597
Arg of perigee:   218.3362 deg
Mean anomaly:     141.7045 deg
Mean motion:   13.72768814 rev/day
Decay rate:        3.1e-07 rev/day^2
Epoch rev:           92693
Checksum:              336

Satellite: FO-20
Catalog number: 20480
Epoch time:      05355.48951153
Element set:    0097
Inclination:      099.0430 deg
RA of node:       134.3007 deg
Eccentricity:    0.0540451
Arg of perigee:   175.1028 deg
Mean anomaly:     185.5668 deg
Mean motion:   12.83349607 rev/day
Decay rate:       -4.2e-07 rev/day^2
Epoch rev:           74352
Checksum:              293

Satellite: RS-12/13
Catalog number: 21089
Epoch time:      05355.84022402
Element set:     100
Inclination:      082.9215 deg
RA of node:       131.6495 deg
Eccentricity:    0.0027834
Arg of perigee:   278.0300 deg
Mean anomaly:     081.7701 deg
Mean motion:   13.74458208 rev/day
Decay rate:        2.8e-07 rev/day^2
Epoch rev:           74627
Checksum:              281

Satellite: RS-15
Catalog number: 23439
Epoch time:      05355.89868583
Element set:    0944
Inclination:      064.8128 deg
RA of node:       163.9600 deg
Eccentricity:    0.0167025
Arg of perigee:   284.1545 deg
Mean anomaly:     074.0870 deg
Mean motion:   11.27551349 rev/day
Decay rate:       -3.9e-07 rev/day^2
Epoch rev:           45255
Checksum:              330

Satellite: FO-29
Catalog number: 24278
Epoch time:      05356.64398245
Element set:     120
Inclination:      098.5218 deg
RA of node:       020.5393 deg
Eccentricity:    0.0351307
Arg of perigee:   047.8134 deg
Mean anomaly:     315.2278 deg
Mean motion:   13.52918303 rev/day
Decay rate:        5.0e-08 rev/day^2
Epoch rev:           46167
Checksum:              302

Satellite: SO-33
Catalog number: 25509
Epoch time:      05355.81602646
Element set:     540
Inclination:      031.4324 deg
RA of node:       051.9846 deg
Eccentricity:    0.0355471
Arg of perigee:   005.9628 deg
Mean anomaly:     354.5079 deg
Mean motion:   14.28066393 rev/day
Decay rate:        8.5e-07 rev/day^2
Epoch rev:           37366
Checksum:              316

Satellite: AO-40
Catalog number: 26609
Epoch time:      05355.22957015
Element set:     651
Inclination:      007.3783 deg
RA of node:       263.9269 deg
Eccentricity:    0.7912181
Arg of perigee:   114.5339 deg
Mean anomaly:     341.9464 deg
Mean motion:   01.25583427 rev/day
Decay rate:       -9.0e-07 rev/day^2
Epoch rev:            2361
Checksum:              309

Satellite: VO-52
Catalog number: 28650
Epoch time:      05356.72257785
Element set:     210
Inclination:      097.8913 deg
RA of node:       067.7376 deg
Eccentricity:    0.0026685
Arg of perigee:   213.8008 deg
Mean anomaly:     146.1484 deg
Mean motion:   14.81015527 rev/day
Decay rate:       4.84e-06 rev/day^2
Epoch rev:            3426
Checksum:              318

/EX
SB KEPS @ AMSAT  $ORB05356.D
Orbital Elements  05356.MICROS

HR AMSAT ORBITAL ELEMENTS FOR THE MICROSATS
FROM WA5QGD FORT WORTH,TX December 22, 2005
Send SUBSCRIBE KEPS/UNSUBSCRIBE KEPS to majordomo@amsat.org only
BID: ORB05356.D
TO ALL RADIO AMATEURS BT

Satellite: UO-14
Catalog number: 20437
Epoch time:      05356.57604657
Element set:     947
Inclination:      098.1963 deg
RA of node:       355.7723 deg
Eccentricity:    0.0011457
Arg of perigee:   357.3442 deg
Mean anomaly:     002.7678 deg
Mean motion:   14.31437590 rev/day
Decay rate:        2.2e-07 rev/day^2
Epoch rev:           83098
Checksum:              324

Satellite: AO-16
Catalog number: 20439
Epoch time:      05355.91672728
Element set:    0632
Inclination:      098.1923 deg
RA of node:       010.7738 deg
Eccentricity:    0.0011271
Arg of perigee:   008.0592 deg
Mean anomaly:     352.0772 deg
Mean motion:   14.31704317 rev/day
Decay rate:        1.5e-07 rev/day^2
Epoch rev:           83095
Checksum:              289

Satellite: WO-18
Catalog number: 20441
Epoch time:      05356.75051555
Element set:     833
Inclination:      098.2004 deg
RA of node:       016.1154 deg
Eccentricity:    0.0012438
Arg of perigee:   004.4556 deg
Mean anomaly:     355.6728 deg
Mean motion:   14.31775983 rev/day
Decay rate:        2.5e-07 rev/day^2
Epoch rev:           83113
Checksum:              287

